星链-32638 (STARLINK-32638)

导读

STARLINK-32638是美国SpaceX公司星链星座的组网卫星,于2024年12月23日发射。星链项目旨在构建全球卫星互联网星座,为全球偏远地区等提供高速低延迟网络服务。该卫星加入已有的庞大星链星座网络,进一步推进星链的全球覆盖布局,延续了SpaceX密集发射组网星链的进程。

基本信息
目录编号:
62424
目录名称:
STARLINK-32638
国际标识:
2024-249R
轨道中心:
EARTH
卫星名称:
星链-32638
卫星全名:
星链-32638 (STARLINK-32638)
卫星状态:
在轨 (已飞行627 天)
发射日期:
2024-12-23 UTC
国别 :
美国 (US)
星等 :
--
该卫星已列入 空间交会检测服务 Space Conjunction Data Service (SCDS) ,当前飞行风险评估等级: 高风险
轨道信息
数据来源 国际轨道数据
星历时间: 2026-09-11T14:49:47+0800
12小时前
查看轨道信息
半长轴: 6861.121km
偏心率: 0.0001772
轨道倾角: 43.004°
近地点辐角 283.993°
升交点赤经 357.561°
平近点角 76.072°
近地点: 481.768km
远地点: 484.2km
周期: 94.265分钟
每日圈数: 15.276018
详细信息
固有亮度:
5
最大亮度:
2.5
卫星平台:
Starlink V1.0
覆盖范围:
全球
运营商:
太空探索技术公司
运营商所在国:
美国
制造商(研发单位):
太空探索技术公司
制造商所在国:
美国
使用方式:
暂无
卫星简介
Starlink 计划是 SpaceX 推出的全球卫星互联网项目,通过发射低轨道卫星,为全球尤其是偏远地区提供高速、低延迟的互联网服务。自 2019 年起,Starlink 已部署数千颗卫星,旨在缩小全球数字鸿沟,推动互联网普及。该项目还为军事、航空等行业提供通信支持,带来广泛经济效益。
2D轨道图
3D轨道图
轨道高度分析图
轨道倾角分析图
轨道综合分析图
查看轨道综合分析图
交会数据列表
事件ID 空间交会对象 最接近时刻(TCA) 交会距离 交会风险概率(CRP) 交会风险指数(CRI) 操作
CDM_260912-192406-242406-698721
2026-09-12T
19:24:33+0000
0.142 km
中距离
7.81904E-4 高风险 0.93
CDM_260912-073806-242406-698721
2026-09-12T
07:38:25+0000
0.581 km
远距离
7.20689E-5 中风险 0.72
CDM_260912-060406-242406-698721
2026-09-12T
06:04:16+0000
0.970 km
远距离
1.411643E-5 中风险 0.58
CDM_260914-062905-740906-242421
2026-09-14T
06:29:17+0000
1.128 km
极远距离
1.00157E-5 中风险 0.55
CDM_260914-051905-851706-242421
2026-09-14T
05:19:16+0000
1.234 km
极远距离
9.710578E-6 低风险 0.55
CDM_260910-035106-242406-698721
2026-09-10T
03:51:18+0000
1.128 km
极远距离
8.383769E-6 低风险 0.53
CDM_260912-205806-242406-698721
2026-09-12T
20:58:42+0000
1.312 km
极远距离
5.021867E-6 低风险 0.49
CDM_260906-043806-242406-308521
2026-09-06T
04:38:22+0000
1.693 km
极远距离
3.869506E-6 低风险 0.47
CDM_260912-175006-242406-698721
2026-09-12T
17:50:24+0000
1.568 km
极远距离
2.841509E-6 低风险 0.44
CDM_260914-045505-740906-242421
2026-09-14T
04:55:07+0000
1.702 km
极远距离
2.62753E-6 低风险 0.43
与全量物体交会距离演化趋势
与全量物体交会风险概率演化趋势